Time,TemperatureF,DewpointF,PressureIn,WindDirection,WindDirectionDegrees,WindSpeedMPH,WindSpeedGustMPH,Humidity,HourlyPrecipIn,Conditions,Clouds,dailyrainin,SoftwareType,DateUTC
2013-06-07 00:02:00,68.6,65.9,29.88,WSW,249,0.0,0.0,91,0.00,,---,0.00,VWS V14.01,2013-06-07 05:02:00,
2013-06-07 00:07:00,68.6,65.9,29.88,WSW,250,0.0,0.0,91,0.00,,---,0.00,VWS V14.01,2013-06-07 05:07:00,
2013-06-07 00:12:00,68.6,65.9,29.88,WSW,249,0.0,0.0,91,0.00,,---,0.00,VWS V14.01,2013-06-07 05:12:00,
2013-06-07 00:17:00,68.6,65.9,29.88,WSW,245,1.0,1.0,91,0.00,,---,0.00,VWS V14.01,2013-06-07 05:17:00,
2013-06-07 00:22:00,68.5,65.8,29.88,WSW,249,0.0,2.0,91,0.00,,---,0.00,VWS V14.01,2013-06-07 05:22:00,
2013-06-07 00:27:00,68.5,65.8,29.88,WSW,249,1.0,2.0,91,0.00,,---,0.00,VWS V14.01,2013-06-07 05:27:00,
2013-06-07 00:32:00,68.4,65.7,29.88,WSW,253,1.0,2.0,91,0.00,,---,0.00,VWS V14.01,2013-06-07 05:32:00,
2013-06-07 00:37:00,68.4,65.7,29.88,WSW,250,0.0,2.0,91,0.00,,---,0.00,VWS V14.01,2013-06-07 05:37:00,
2013-06-07 00:42:00,68.3,65.9,29.88,WSW,249,0.0,2.0,92,0.00,,---,0.00,VWS V14.01,2013-06-07 05:42:00,
2013-06-07 00:47:00,68.1,65.7,29.88,WSW,249,0.0,2.0,92,0.00,,---,0.00,VWS V14.01,2013-06-07 05:47:00,
2013-06-07 00:52:00,68.1,65.7,29.88,WSW,253,1.0,3.0,92,0.00,,---,0.00,VWS V14.01,2013-06-07 05:52:00,
2013-06-07 00:57:00,68.0,65.6,29.88,WSW,249,0.0,3.0,92,0.00,,---,0.00,VWS V14.01,2013-06-07 05:57:00,
2013-06-07 01:02:00,67.9,65.5,29.88,WSW,249,0.0,2.0,92,0.00,,---,0.00,VWS V14.01,2013-06-07 06:02:00,
2013-06-07 01:07:00,67.8,65.4,29.88,WSW,252,1.0,3.0,92,0.00,,---,0.00,VWS V14.01,2013-06-07 06:07:00,
2013-06-07 01:12:00,67.7,65.3,29.87,WSW,255,2.0,3.0,92,0.00,,---,0.00,VWS V14.01,2013-06-07 06:12:00,
2013-06-07 01:17:00,67.7,65.3,29.87,WSW,253,1.0,3.0,92,0.00,,---,0.00,VWS V14.01,2013-06-07 06:17:00,
2013-06-07 01:22:00,67.7,65.3,29.87,WSW,243,1.0,3.0,92,0.00,,---,0.00,VWS V14.01,2013-06-07 06:22:00,
2013-06-07 01:27:00,67.7,65.3,29.87,WSW,252,2.0,3.0,92,0.00,,---,0.00,VWS V14.01,2013-06-07 06:27:00,
2013-06-07 01:32:00,67.6,64.9,29.87,WSW,249,2.0,3.0,91,0.00,,---,0.00,VWS V14.01,2013-06-07 06:32:00,
2013-06-07 01:37:00,67.6,64.9,29.87,WSW,252,1.0,3.0,91,0.00,,---,0.00,VWS V14.01,2013-06-07 06:37:00,
2013-06-07 01:42:00,67.6,64.6,29.88,WSW,240,1.0,3.0,90,0.00,,---,0.00,VWS V14.01,2013-06-07 06:42:00,
2013-06-07 01:47:00,67.6,64.6,29.88,WSW,255,2.0,4.0,90,0.00,,---,0.00,VWS V14.01,2013-06-07 06:47:00,
2013-06-07 01:52:00,67.6,64.2,29.87,WSW,257,2.0,4.0,89,0.00,,---,0.00,VWS V14.01,2013-06-07 06:52:00,
2013-06-07 01:57:00,67.5,64.2,29.87,WSW,248,2.0,4.0,89,0.00,,---,0.00,VWS V14.01,2013-06-07 06:57:00,
2013-06-07 02:02:00,67.5,64.2,29.87,WSW,256,2.0,2.0,89,0.00,,---,0.00,VWS V14.01,2013-06-07 07:02:00,
2013-06-07 02:07:00,67.4,64.1,29.87,WSW,252,1.0,3.0,89,0.00,,---,0.00,VWS V14.01,2013-06-07 07:07:00,
2013-06-07 02:12:00,67.3,64.0,29.87,West,260,2.0,4.0,89,0.00,,---,0.00,VWS V14.01,2013-06-07 07:12:00,
2013-06-07 02:17:00,67.2,63.8,29.87,WSW,252,1.0,4.0,89,0.00,,---,0.00,VWS V14.01,2013-06-07 07:17:00,
2013-06-07 02:22:00,67.1,63.8,29.87,West,259,2.0,4.0,89,0.00,,---,0.00,VWS V14.01,2013-06-07 07:22:00,
2013-06-07 02:27:00,67.1,63.8,29.87,West,260,2.0,4.0,89,0.00,,---,0.00,VWS V14.01,2013-06-07 07:27:00,
2013-06-07 02:32:00,67.0,63.7,29.87,WSW,257,2.0,3.0,89,0.00,,---,0.00,VWS V14.01,2013-06-07 07:32:00,
2013-06-07 02:37:00,66.9,63.2,29.86,West,260,2.0,3.0,88,0.00,,---,0.00,VWS V14.01,2013-06-07 07:37:00,
2013-06-07 02:42:00,66.8,63.1,29.87,WSW,251,1.0,3.0,88,0.00,,---,0.00,VWS V14.01,2013-06-07 07:42:00,
2013-06-07 02:47:00,66.7,63.0,29.87,West,259,2.0,3.0,88,0.00,,---,0.00,VWS V14.01,2013-06-07 07:47:00,
2013-06-07 02:52:00,66.7,62.7,29.87,WSW,258,2.0,3.0,87,0.00,,---,0.00,VWS V14.01,2013-06-07 07:52:00,
2013-06-07 02:57:00,66.6,62.6,29.87,WSW,255,2.0,3.0,87,0.00,,---,0.00,VWS V14.01,2013-06-07 07:57:00,
2013-06-07 03:02:00,66.5,62.5,29.87,WSW,257,2.0,3.0,87,0.00,,---,0.00,VWS V14.01,2013-06-07 08:02:00,
2013-06-07 03:07:00,66.4,62.4,29.88,West,262,2.0,3.0,87,0.00,,---,0.00,VWS V14.01,2013-06-07 08:07:00,
2013-06-07 03:12:00,66.4,62.4,29.88,WSW,256,2.0,3.0,87,0.00,,---,0.00,VWS V14.01,2013-06-07 08:12:00,
2013-06-07 03:17:00,66.3,62.3,29.88,West,261,3.0,3.0,87,0.00,,---,0.00,VWS V14.01,2013-06-07 08:17:00,
2013-06-07 03:22:00,66.1,62.1,29.88,West,260,2.0,3.0,87,0.00,,---,0.00,VWS V14.01,2013-06-07 08:22:00,
2013-06-07 03:27:00,66.0,61.7,29.88,West,259,1.0,3.0,86,0.00,,---,0.00,VWS V14.01,2013-06-07 08:27:00,
2013-06-07 03:32:00,65.9,61.9,29.88,West,264,2.0,2.0,87,0.00,,---,0.00,VWS V14.01,2013-06-07 08:32:00,
2013-06-07 03:37:00,65.8,61.8,29.88,West,259,1.0,3.0,87,0.00,,---,0.00,VWS V14.01,2013-06-07 08:37:00,
2013-06-07 03:42:00,65.6,61.6,29.88,WSW,256,0.0,3.0,87,0.00,,---,0.00,VWS V14.01,2013-06-07 08:42:00,
2013-06-07 03:47:00,65.4,61.8,29.88,WSW,256,1.0,3.0,88,0.00,,---,0.00,VWS V14.01,2013-06-07 08:47:00,
2013-06-07 03:52:00,65.2,61.6,29.88,WSW,257,2.0,3.0,88,0.00,,---,0.00,VWS V14.01,2013-06-07 08:52:00,
2013-06-07 03:57:00,65.0,61.4,29.88,WSW,257,2.0,3.0,88,0.00,,---,0.00,VWS V14.01,2013-06-07 08:57:00,
2013-06-07 04:02:00,64.9,61.6,29.88,WSW,257,1.0,2.0,89,0.00,,---,0.00,VWS V14.01,2013-06-07 09:02:00,
2013-06-07 04:07:00,64.7,61.7,29.88,WSW,257,1.0,2.0,90,0.00,,---,0.00,VWS V14.01,2013-06-07 09:07:00,
2013-06-07 04:12:00,64.6,61.6,29.88,WSW,255,1.0,2.0,90,0.00,,---,0.00,VWS V14.01,2013-06-07 09:12:00,
2013-06-07 04:17:00,64.5,61.5,29.88,WSW,256,1.0,3.0,90,0.00,,---,0.00,VWS V14.01,2013-06-07 09:17:00,
2013-06-07 04:22:00,64.4,61.7,29.88,West,260,3.0,3.0,91,0.00,,---,0.00,VWS V14.01,2013-06-07 09:22:00,
2013-06-07 04:27:00,64.4,61.7,29.89,West,259,2.0,3.0,91,0.00,,---,0.00,VWS V14.01,2013-06-07 09:27:00,
2013-06-07 04:32:00,64.3,61.6,29.89,West,259,1.0,2.0,91,0.00,,---,0.00,VWS V14.01,2013-06-07 09:32:00,
2013-06-07 04:37:00,64.2,61.5,29.88,WSW,257,1.0,2.0,91,0.00,,---,0.00,VWS V14.01,2013-06-07 09:37:00,
2013-06-07 04:42:00,64.1,61.4,29.89,WSW,255,0.0,2.0,91,0.00,,---,0.00,VWS V14.01,2013-06-07 09:42:00,
2013-06-07 04:47:00,64.0,61.3,29.89,WSW,251,1.0,2.0,91,0.00,,---,0.00,VWS V14.01,2013-06-07 09:47:00,
2013-06-07 04:52:00,63.9,61.5,29.89,WSW,251,0.0,2.0,92,0.00,,---,0.00,VWS V14.01,2013-06-07 09:52:00,
2013-06-07 04:57:00,63.8,61.4,29.89,WSW,251,0.0,2.0,92,0.00,,---,0.00,VWS V14.01,2013-06-07 09:57:00,
2013-06-07 05:02:00,63.7,61.3,29.89,WSW,250,0.0,2.0,92,0.00,,---,0.00,VWS V14.01,2013-06-07 10:02:00,
2013-06-07 05:07:00,63.7,61.3,29.89,West,260,2.0,2.0,92,0.00,,---,0.00,VWS V14.01,2013-06-07 10:07:00,
2013-06-07 05:12:00,63.6,61.2,29.89,WSW,255,1.0,2.0,92,0.00,,---,0.00,VWS V14.01,2013-06-07 10:12:00,
2013-06-07 05:17:00,63.5,61.1,29.89,WSW,250,2.0,2.0,92,0.00,,---,0.00,VWS V14.01,2013-06-07 10:17:00,
2013-06-07 05:22:00,63.4,61.0,29.89,WSW,253,1.0,2.0,92,0.00,,---,0.00,VWS V14.01,2013-06-07 10:22:00,
2013-06-07 05:27:00,63.3,60.9,29.90,WSW,252,1.0,2.0,92,0.00,,---,0.00,VWS V14.01,2013-06-07 10:27:00,
2013-06-07 05:32:00,63.3,60.9,29.90,WSW,255,2.0,2.0,92,0.00,,---,0.00,VWS V14.01,2013-06-07 10:32:00,
2013-06-07 05:37:00,63.2,60.8,29.90,WSW,252,0.0,2.0,92,0.00,,---,0.00,VWS V14.01,2013-06-07 10:37:00,
2013-06-07 05:42:00,63.0,60.6,29.90,WSW,252,1.0,2.0,92,0.00,,---,0.00,VWS V14.01,2013-06-07 10:42:00,
2013-06-07 05:47:00,62.9,60.8,29.90,WSW,250,1.0,2.0,93,0.00,,---,0.00,VWS V14.01,2013-06-07 10:47:00,
2013-06-07 05:52:00,62.8,60.8,29.90,WSW,250,1.0,2.0,93,0.00,,---,0.00,VWS V14.01,2013-06-07 10:52:00,
2013-06-07 05:57:00,62.8,60.8,29.90,WSW,250,1.0,2.0,93,0.00,,---,0.00,VWS V14.01,2013-06-07 10:57:00,
2013-06-07 06:02:00,62.8,60.8,29.90,WSW,249,1.0,2.0,93,0.00,,---,0.00,VWS V14.01,2013-06-07 11:02:00,
2013-06-07 06:07:00,62.8,60.5,29.90,WSW,256,1.0,3.0,92,0.00,,---,0.00,VWS V14.01,2013-06-07 11:07:00,
2013-06-07 06:12:00,62.8,60.5,29.90,West,264,2.0,3.0,92,0.00,,---,0.00,VWS V14.01,2013-06-07 11:12:00,
2013-06-07 06:17:00,62.8,60.5,29.90,WSW,257,1.0,4.0,92,0.00,,---,0.00,VWS V14.01,2013-06-07 11:17:00,
2013-06-07 06:22:00,62.7,60.3,29.90,West,260,2.0,4.0,92,0.00,,---,0.00,VWS V14.01,2013-06-07 11:22:00,
2013-06-07 06:27:00,62.7,60.3,29.90,WSW,256,2.0,4.0,92,0.00,,---,0.00,VWS V14.01,2013-06-07 11:27:00,
2013-06-07 06:32:00,62.6,60.2,29.90,WSW,257,2.0,3.0,92,0.00,,---,0.00,VWS V14.01,2013-06-07 11:32:00,
2013-06-07 06:37:00,62.6,60.2,29.91,West,259,2.0,3.0,92,0.00,,---,0.00,VWS V14.01,2013-06-07 11:37:00,
2013-06-07 06:42:00,62.6,60.2,29.91,WSW,255,1.0,3.0,92,0.00,,---,0.00,VWS V14.01,2013-06-07 11:42:00,
2013-06-07 06:47:00,62.5,60.2,29.91,WSW,256,2.0,4.0,92,0.00,,---,0.00,VWS V14.01,2013-06-07 11:47:00,
2013-06-07 06:52:00,62.6,60.2,29.91,WSW,254,0.0,4.0,92,0.00,,---,0.00,VWS V14.01,2013-06-07 11:52:00,
2013-06-07 06:57:00,62.6,60.2,29.91,West,259,2.0,4.0,92,0.00,,---,0.00,VWS V14.01,2013-06-07 11:57:00,
2013-06-07 07:02:00,62.8,60.1,29.91,WSW,239,0.0,2.0,91,0.00,,---,0.00,VWS V14.01,2013-06-07 12:02:00,
2013-06-07 07:07:00,62.9,60.2,29.91,WSW,252,2.0,4.0,91,0.00,,---,0.00,VWS V14.01,2013-06-07 12:07:00,
2013-06-07 07:12:00,63.1,60.4,29.91,WSW,254,2.0,4.0,91,0.00,,---,0.00,VWS V14.01,2013-06-07 12:12:00,
2013-06-07 07:17:00,63.3,60.6,29.91,West,267,3.0,4.0,91,0.00,,---,0.00,VWS V14.01,2013-06-07 12:17:00,
2013-06-07 07:22:00,63.5,60.5,29.91,WSW,256,0.0,4.0,90,0.00,,---,0.00,VWS V14.01,2013-06-07 12:22:00,
2013-06-07 07:27:00,63.7,60.7,29.92,WSW,252,1.0,4.0,90,0.00,,---,0.00,VWS V14.01,2013-06-07 12:27:00,
2013-06-07 07:32:00,64.2,60.9,29.92,WSW,246,0.0,2.0,89,0.00,,---,0.00,VWS V14.01,2013-06-07 12:32:00,
2013-06-07 07:37:00,64.6,61.0,29.92,WSW,253,1.0,3.0,88,0.00,,---,0.00,VWS V14.01,2013-06-07 12:37:00,
2013-06-07 07:42:00,65.0,61.4,29.92,West,260,0.0,3.0,88,0.00,,---,0.00,VWS V14.01,2013-06-07 12:42:00,
2013-06-07 07:47:00,65.3,61.3,29.92,WSW,252,0.0,3.0,87,0.00,,---,0.00,VWS V14.01,2013-06-07 12:47:00,
2013-06-07 07:52:00,65.8,61.5,29.92,WSW,242,0.0,3.0,86,0.00,,---,0.00,VWS V14.01,2013-06-07 12:52:00,
2013-06-07 07:57:00,66.3,61.7,29.92,WSW,246,0.0,3.0,85,0.00,,---,0.00,VWS V14.01,2013-06-07 12:57:00,
2013-06-07 08:02:00,66.8,62.2,29.92,WSW,246,0.0,0.0,85,0.00,,---,0.00,VWS V14.01,2013-06-07 13:02:00,
2013-06-07 08:07:00,67.5,62.2,29.92,WSW,257,1.0,3.0,83,0.00,,---,0.00,VWS V14.01,2013-06-07 13:07:00,
2013-06-07 08:12:00,67.7,62.4,29.92,WSW,256,3.0,3.0,83,0.00,,---,0.00,VWS V14.01,2013-06-07 13:12:00,
2013-06-07 08:17:00,68.0,62.0,29.92,WSW,243,0.0,5.0,81,0.00,,---,0.00,VWS V14.01,2013-06-07 13:17:00,
2013-06-07 08:22:00,68.2,61.8,29.92,West,261,2.0,5.0,80,0.00,,---,0.00,VWS V14.01,2013-06-07 13:22:00,
2013-06-07 08:27:00,68.5,61.7,29.92,WSW,256,0.0,5.0,79,0.00,,---,0.00,VWS V14.01,2013-06-07 13:27:00,
2013-06-07 08:32:00,68.8,62.0,29.92,WSW,254,0.0,3.0,79,0.00,,---,0.00,VWS V14.01,2013-06-07 13:32:00,
2013-06-07 08:37:00,69.3,62.2,29.93,West,264,3.0,3.0,78,0.00,,---,0.00,VWS V14.01,2013-06-07 13:37:00,
2013-06-07 08:42:00,69.7,61.8,29.93,SW,233,0.0,4.0,76,0.00,,---,0.00,VWS V14.01,2013-06-07 13:42:00,
2013-06-07 08:47:00,70.0,62.1,29.93,WSW,257,0.0,4.0,76,0.00,,---,0.00,VWS V14.01,2013-06-07 13:47:00,
2013-06-07 08:52:00,70.7,63.1,29.93,WSW,252,1.0,4.0,77,0.00,,---,0.00,VWS V14.01,2013-06-07 13:52:00,
2013-06-07 08:57:00,71.4,62.7,29.93,WSW,253,0.0,4.0,74,0.00,,---,0.00,VWS V14.01,2013-06-07 13:57:00,
2013-06-07 09:02:00,72.1,62.6,29.93,West,262,2.0,3.0,72,0.00,,---,0.00,VWS V14.01,2013-06-07 14:02:00,
2013-06-07 09:07:00,72.5,63.4,29.93,SW,225,1.0,3.0,73,0.00,,---,0.00,VWS V14.01,2013-06-07 14:07:00,
2013-06-07 09:12:00,73.5,63.1,29.93,West,262,0.0,3.0,70,0.00,,---,0.00,VWS V14.01,2013-06-07 14:12:00,
2013-06-07 09:17:00,73.7,63.3,29.93,WSW,256,1.0,3.0,70,0.00,,---,0.00,VWS V14.01,2013-06-07 14:17:00,
2013-06-07 09:22:00,73.9,61.8,29.93,WNW,298,1.0,4.0,66,0.00,,---,0.00,VWS V14.01,2013-06-07 14:22:00,
2013-06-07 09:27:00,73.9,62.3,29.93,WNW,301,0.0,5.0,67,0.00,,---,0.00,VWS V14.01,2013-06-07 14:27:00,
2013-06-07 09:32:00,74.3,62.2,29.93,NW,315,2.0,2.0,66,0.00,,---,0.00,VWS V14.01,2013-06-07 14:32:00,
2013-06-07 09:37:00,74.4,61.4,29.93,NNW,338,1.0,5.0,64,0.00,,---,0.00,VWS V14.01,2013-06-07 14:37:00,
2013-06-07 09:42:00,74.6,62.1,29.93,NW,326,2.0,5.0,65,0.00,,---,0.00,VWS V14.01,2013-06-07 14:42:00,
2013-06-07 09:47:00,75.4,62.8,29.93,NW,304,1.0,6.0,65,0.00,,---,0.00,VWS V14.01,2013-06-07 14:47:00,
2013-06-07 09:52:00,76.1,63.0,29.93,WNW,298,3.0,6.0,64,0.00,,---,0.00,VWS V14.01,2013-06-07 14:52:00,
2013-06-07 09:57:00,76.3,63.7,29.93,SW,225,1.0,6.0,65,0.00,,---,0.00,VWS V14.01,2013-06-07 14:57:00,
2013-06-07 10:02:00,76.8,62.3,29.93,NW,308,1.0,3.0,61,0.00,,---,0.00,VWS V14.01,2013-06-07 15:02:00,
2013-06-07 10:07:00,77.3,62.8,29.93,NW,316,0.0,3.0,61,0.00,,---,0.00,VWS V14.01,2013-06-07 15:07:00,
2013-06-07 10:12:00,77.3,61.4,29.93,North,359,2.0,5.0,58,0.00,,---,0.00,VWS V14.01,2013-06-07 15:12:00,
2013-06-07 10:17:00,77.3,61.4,29.93,NW,315,2.0,5.0,58,0.00,,---,0.00,VWS V14.01,2013-06-07 15:17:00,
2013-06-07 10:22:00,77.7,61.3,29.93,ENE,64,1.0,5.0,57,0.00,,---,0.00,VWS V14.01,2013-06-07 15:22:00,
2013-06-07 10:27:00,78.4,61.4,29.93,NW,323,2.0,5.0,56,0.00,,---,0.00,VWS V14.01,2013-06-07 15:27:00,
2013-06-07 10:32:00,78.6,62.1,29.93,NW,326,1.0,3.0,57,0.00,,---,0.00,VWS V14.01,2013-06-07 15:32:00,
2013-06-07 10:37:00,78.5,61.5,29.93,ENE,66,1.0,5.0,56,0.00,,---,0.00,VWS V14.01,2013-06-07 15:37:00,
2013-06-07 10:42:00,78.3,60.3,29.93,SSW,193,0.0,6.0,54,0.00,,---,0.00,VWS V14.01,2013-06-07 15:42:00,
2013-06-07 10:47:00,77.9,59.4,29.94,East,97,2.0,6.0,53,0.00,,---,0.00,VWS V14.01,2013-06-07 15:47:00,
2013-06-07 10:52:00,78.0,60.0,29.94,West,262,0.0,6.0,54,0.00,,---,0.00,VWS V14.01,2013-06-07 15:52:00,
2013-06-07 10:57:00,78.1,60.6,29.94,NNW,329,0.0,6.0,55,0.00,,---,0.00,VWS V14.01,2013-06-07 15:57:00,
2013-06-07 11:02:00,78.5,61.5,29.94,NE,44,0.0,4.0,56,0.00,,---,0.00,VWS V14.01,2013-06-07 16:02:00,
2013-06-07 11:07:00,78.8,60.2,29.94,NW,316,0.0,5.0,53,0.00,,---,0.00,VWS V14.01,2013-06-07 16:07:00,
2013-06-07 11:12:00,79.2,61.7,29.94,NE,34,3.0,5.0,55,0.00,,---,0.00,VWS V14.01,2013-06-07 16:12:00,
2013-06-07 11:17:00,79.8,60.6,29.94,SE,132,0.0,5.0,52,0.00,,---,0.00,VWS V14.01,2013-06-07 16:17:00,
2013-06-07 11:22:00,80.0,60.8,29.95,East,101,0.0,5.0,52,0.00,,---,0.00,VWS V14.01,2013-06-07 16:22:00,
2013-06-07 11:27:00,80.1,60.4,29.95,East,98,0.0,5.0,51,0.00,,---,0.00,VWS V14.01,2013-06-07 16:27:00,
2013-06-07 11:32:00,80.3,60.5,29.95,North,8,2.0,3.0,51,0.00,,---,0.00,VWS V14.01,2013-06-07 16:32:00,
2013-06-07 11:37:00,80.7,62.0,29.95,NW,304,0.0,3.0,53,0.00,,---,0.00,VWS V14.01,2013-06-07 16:37:00,
2013-06-07 11:42:00,80.5,61.3,29.94,SW,232,2.0,3.0,52,0.00,,---,0.00,VWS V14.01,2013-06-07 16:42:00,
2013-06-07 11:47:00,80.0,59.1,29.95,NW,307,1.0,7.0,49,0.00,,---,0.00,VWS V14.01,2013-06-07 16:47:00,
2013-06-07 11:52:00,79.1,59.4,29.94,NW,320,2.0,7.0,51,0.00,,---,0.00,VWS V14.01,2013-06-07 16:52:00,
2013-06-07 11:57:00,79.4,59.7,29.95,NW,315,1.0,7.0,51,0.00,,---,0.00,VWS V14.01,2013-06-07 16:57:00,
2013-06-07 12:02:00,80.0,59.7,29.95,WNW,291,1.0,2.0,50,0.00,,---,0.00,VWS V14.01,2013-06-07 17:02:00,
2013-06-07 12:07:00,79.6,59.3,29.94,NW,326,1.0,7.0,50,0.00,,---,0.00,VWS V14.01,2013-06-07 17:07:00,
2013-06-07 12:12:00,79.6,59.3,29.94,ENE,73,1.0,7.0,50,0.00,,---,0.00,VWS V14.01,2013-06-07 17:12:00,
2013-06-07 12:17:00,80.3,60.5,29.94,NW,308,1.0,7.0,51,0.00,,---,0.00,VWS V14.01,2013-06-07 17:17:00,
2013-06-07 12:22:00,80.0,59.1,29.94,NW,308,0.0,7.0,49,0.00,,---,0.00,VWS V14.01,2013-06-07 17:22:00,
2013-06-07 12:27:00,79.9,59.6,29.93,WNW,288,0.0,7.0,50,0.00,,---,0.00,VWS V14.01,2013-06-07 17:27:00,
2013-06-07 12:32:00,80.1,60.4,29.93,WNW,294,0.0,1.0,51,0.00,,---,0.00,VWS V14.01,2013-06-07 17:32:00,
2013-06-07 12:37:00,80.7,60.9,29.93,WNW,294,0.0,3.0,51,0.00,,---,0.00,VWS V14.01,2013-06-07 17:37:00,
2013-06-07 12:42:00,80.5,59.6,29.93,NW,307,2.0,3.0,49,0.00,,---,0.00,VWS V14.01,2013-06-07 17:42:00,
2013-06-07 12:47:00,80.0,58.6,29.93,NW,311,1.0,9.0,48,0.00,,---,0.00,VWS V14.01,2013-06-07 17:47:00,
2013-06-07 12:52:00,80.1,60.9,29.93,SSE,156,1.0,9.0,52,0.00,,---,0.00,VWS V14.01,2013-06-07 17:52:00,
2013-06-07 12:57:00,80.4,58.9,29.93,NW,324,1.0,9.0,48,0.00,,---,0.00,VWS V14.01,2013-06-07 17:57:00,
2013-06-07 13:02:00,80.1,59.2,29.92,WSW,250,4.0,4.0,49,0.00,,---,0.00,VWS V14.01,2013-06-07 18:02:00,
2013-06-07 13:07:00,80.0,58.6,29.92,NW,318,2.0,6.0,48,0.00,,---,0.00,VWS V14.01,2013-06-07 18:07:00,
2013-06-07 13:12:00,80.3,58.8,29.92,NNE,15,3.0,6.0,48,0.00,,---,0.00,VWS V14.01,2013-06-07 18:12:00,
2013-06-07 13:17:00,80.7,58.6,29.92,NNW,344,5.0,6.0,47,0.00,,---,0.00,VWS V14.01,2013-06-07 18:17:00,
2013-06-07 13:22:00,80.8,59.9,29.92,NW,305,1.0,6.0,49,0.00,,---,0.00,VWS V14.01,2013-06-07 18:22:00,
2013-06-07 13:27:00,81.1,59.6,29.92,NW,313,2.0,6.0,48,0.00,,---,0.00,VWS V14.01,2013-06-07 18:27:00,
2013-06-07 13:33:00,81.2,58.5,29.92,West,262,2.0,5.0,46,0.00,,---,0.00,VWS V14.01,2013-06-07 18:33:00,
2013-06-07 13:38:00,81.2,57.9,29.92,NW,319,1.0,5.0,45,0.00,,---,0.00,VWS V14.01,2013-06-07 18:38:00,
2013-06-07 13:43:00,81.9,62.0,29.91,SSE,154,0.0,5.0,51,0.00,,---,0.00,VWS V14.01,2013-06-07 18:43:00,
2013-06-07 13:48:00,82.9,60.6,29.91,NW,309,0.0,5.0,47,0.00,,---,0.00,VWS V14.01,2013-06-07 18:48:00,
2013-06-07 13:53:00,83.4,59.8,29.90,NW,317,0.0,5.0,45,0.00,,---,0.00,VWS V14.01,2013-06-07 18:53:00,
2013-06-07 13:58:00,83.5,60.6,29.90,ENE,66,1.0,6.0,46,0.00,,---,0.00,VWS V14.01,2013-06-07 18:58:00,
2013-06-07 14:03:00,83.2,58.4,29.90,NW,305,5.0,8.0,43,0.00,,---,0.00,VWS V14.01,2013-06-07 19:03:00,
2013-06-07 14:08:00,81.9,57.2,29.90,NW,311,3.0,9.0,43,0.00,,---,0.00,VWS V14.01,2013-06-07 19:08:00,
2013-06-07 14:13:00,81.3,58.6,29.90,SE,146,1.0,9.0,46,0.00,,---,0.00,VWS V14.01,2013-06-07 19:13:00,
2013-06-07 14:18:00,82.4,58.3,29.90,NW,316,3.0,9.0,44,0.00,,---,0.00,VWS V14.01,2013-06-07 19:18:00,
2013-06-07 14:24:00,82.3,58.2,29.90,NW,316,2.0,9.0,44,0.00,,---,0.00,VWS V14.01,2013-06-07 19:24:00,
2013-06-07 14:29:00,82.1,58.0,29.89,WNW,291,0.0,9.0,44,0.00,,---,0.00,VWS V14.01,2013-06-07 19:29:00,
2013-06-07 14:34:00,83.0,60.7,29.89,East,84,4.0,4.0,47,0.00,,---,0.00,VWS V14.01,2013-06-07 19:34:00,
2013-06-07 14:39:00,83.7,60.7,29.89,South,169,1.0,4.0,46,0.00,,---,0.00,VWS V14.01,2013-06-07 19:39:00,
2013-06-07 14:44:00,84.0,59.1,29.89,NNW,332,2.0,6.0,43,0.00,,---,0.00,VWS V14.01,2013-06-07 19:44:00,
2013-06-07 14:49:00,82.7,58.0,29.89,NW,304,0.0,6.0,43,0.00,,---,0.00,VWS V14.01,2013-06-07 19:49:00,
2013-06-07 14:54:00,83.0,59.5,29.89,NE,53,2.0,6.0,45,0.00,,---,0.00,VWS V14.01,2013-06-07 19:54:00,
2013-06-07 14:59:00,82.7,59.2,29.89,NW,319,2.0,7.0,45,0.00,,---,0.00,VWS V14.01,2013-06-07 19:59:00,
2013-06-07 15:04:00,82.8,58.7,29.88,North,350,3.0,5.0,44,0.00,,---,0.00,VWS V14.01,2013-06-07 20:04:00,
2013-06-07 15:09:00,83.7,60.1,29.88,NW,323,1.0,5.0,45,0.00,,---,0.00,VWS V14.01,2013-06-07 20:09:00,
2013-06-07 15:14:00,84.1,59.2,29.88,SSE,149,1.0,5.0,43,0.00,,---,0.00,VWS V14.01,2013-06-07 20:14:00,
2013-06-07 15:19:00,84.3,60.0,29.88,NNW,344,2.0,5.0,44,0.00,,---,0.00,VWS V14.01,2013-06-07 20:19:00,
2013-06-07 15:24:00,83.9,58.4,29.88,NW,326,2.0,8.0,42,0.00,,---,0.00,VWS V14.01,2013-06-07 20:24:00,
2013-06-07 15:29:00,83.3,58.5,29.88,WSW,256,0.0,8.0,43,0.00,,---,0.00,VWS V14.01,2013-06-07 20:29:00,
2013-06-07 15:34:00,83.3,57.8,29.88,NNW,340,2.0,5.0,42,0.00,,---,0.00,VWS V14.01,2013-06-07 20:34:00,
2013-06-07 15:39:00,83.1,58.3,29.88,ESE,123,1.0,7.0,43,0.00,,---,0.00,VWS V14.01,2013-06-07 20:39:00,
2013-06-07 15:44:00,83.3,58.5,29.88,NNW,327,2.0,7.0,43,0.00,,---,0.00,VWS V14.01,2013-06-07 20:44:00,
2013-06-07 15:49:00,83.3,58.5,29.88,NW,305,2.0,7.0,43,0.00,,---,0.00,VWS V14.01,2013-06-07 20:49:00,
2013-06-07 15:54:00,83.7,59.5,29.88,North,9,3.0,7.0,44,0.00,,---,0.00,VWS V14.01,2013-06-07 20:54:00,
2013-06-07 15:59:00,83.8,57.6,29.88,NW,314,5.0,7.0,41,0.00,,---,0.00,VWS V14.01,2013-06-07 20:59:00,
2013-06-07 16:04:00,83.4,58.6,29.88,SE,141,1.0,5.0,43,0.00,,---,0.00,VWS V14.01,2013-06-07 21:04:00,
2013-06-07 16:09:00,84.2,60.0,29.88,WNW,301,3.0,5.0,44,0.00,,---,0.00,VWS V14.01,2013-06-07 21:09:00,
2013-06-07 16:14:00,84.4,58.8,29.88,WSW,253,0.0,5.0,42,0.00,,---,0.00,VWS V14.01,2013-06-07 21:14:00,
2013-06-07 16:20:00,83.8,58.3,29.88,NW,307,2.0,5.0,42,0.00,,---,0.00,VWS V14.01,2013-06-07 21:20:00,
2013-06-07 16:25:00,84.2,60.6,29.88,NNW,335,0.0,5.0,45,0.00,,---,0.00,VWS V14.01,2013-06-07 21:25:00,
2013-06-07 16:30:00,84.9,58.6,29.88,NW,319,2.0,5.0,41,0.00,,---,0.00,VWS V14.01,2013-06-07 21:30:00,
2013-06-07 16:35:00,84.1,57.9,29.88,WNW,298,4.0,6.0,41,0.00,,---,0.00,VWS V14.01,2013-06-07 21:35:00,
2013-06-07 16:40:00,83.0,56.9,29.89,NW,308,1.0,6.0,41,0.00,,---,0.00,VWS V14.01,2013-06-07 21:40:00,
2013-06-07 16:45:00,82.5,57.8,29.89,SSE,156,1.0,6.0,43,0.00,,---,0.00,VWS V14.01,2013-06-07 21:45:00,
2013-06-07 16:50:00,82.5,57.8,29.88,NW,325,0.0,6.0,43,0.00,,---,0.00,VWS V14.01,2013-06-07 21:50:00,
2013-06-07 16:55:00,82.4,59.0,29.88,NW,321,0.0,6.0,45,0.00,,---,0.00,VWS V14.01,2013-06-07 21:55:00,
2013-06-07 17:00:00,82.7,59.2,29.88,WNW,285,0.0,6.0,45,0.00,,---,0.00,VWS V14.01,2013-06-07 22:00:00,
2013-06-07 17:05:00,84.0,59.1,29.88,ESE,111,1.0,3.0,43,0.00,,---,0.00,VWS V14.01,2013-06-07 22:05:00,
2013-06-07 17:10:00,84.5,59.6,29.88,NNW,344,0.0,3.0,43,0.00,,---,0.00,VWS V14.01,2013-06-07 22:10:00,
2013-06-07 17:16:00,84.9,59.9,29.88,East,87,2.0,3.0,43,0.00,,---,0.00,VWS V14.01,2013-06-07 22:16:00,
2013-06-07 17:21:00,84.6,60.9,29.88,SE,146,0.0,4.0,45,0.00,,---,0.00,VWS V14.01,2013-06-07 22:21:00,
2013-06-07 17:26:00,84.8,59.8,29.87,SE,133,0.0,4.0,43,0.00,,---,0.00,VWS V14.01,2013-06-07 22:26:00,
2013-06-07 17:31:00,84.8,60.5,29.88,SE,138,0.0,0.0,44,0.00,,---,0.00,VWS V14.01,2013-06-07 22:31:00,
2013-06-07 17:36:00,85.4,60.4,29.88,SSW,210,0.0,1.0,43,0.00,,---,0.00,VWS V14.01,2013-06-07 22:36:00,
2013-06-07 17:41:00,85.7,59.3,29.88,NNW,330,0.0,1.0,41,0.00,,---,0.00,VWS V14.01,2013-06-07 22:41:00,
2013-06-07 17:46:00,85.9,59.5,29.87,NW,326,0.0,1.0,41,0.00,,---,0.00,VWS V14.01,2013-06-07 22:46:00,
2013-06-07 17:52:00,85.2,60.8,29.87,NW,308,0.0,2.0,44,0.00,,---,0.00,VWS V14.01,2013-06-07 22:52:00,
2013-06-07 17:57:00,84.4,59.5,29.87,NNW,335,0.0,3.0,43,0.00,,---,0.00,VWS V14.01,2013-06-07 22:57:00,
2013-06-07 18:02:00,84.0,60.4,29.87,NNW,330,0.0,1.0,45,0.00,,---,0.00,VWS V14.01,2013-06-07 23:02:00,
2013-06-07 18:07:00,83.8,59.6,29.87,NW,321,0.0,1.0,44,0.00,,---,0.00,VWS V14.01,2013-06-07 23:07:00,
2013-06-07 18:12:00,83.1,59.6,29.86,NW,321,0.0,1.0,45,0.00,,---,0.00,VWS V14.01,2013-06-07 23:12:00,
2013-06-07 18:17:00,82.5,60.8,29.86,NW,318,0.0,1.0,48,0.00,,---,0.00,VWS V14.01,2013-06-07 23:17:00,
2013-06-07 18:22:00,82.5,60.8,29.86,NW,317,0.0,1.0,48,0.00,,---,0.00,VWS V14.01,2013-06-07 23:22:00,
2013-06-07 18:27:00,83.1,60.8,29.86,NW,317,0.0,1.0,47,0.00,,---,0.00,VWS V14.01,2013-06-07 23:27:00,
2013-06-07 18:32:00,83.7,62.0,29.86,NW,307,0.0,0.0,48,0.00,,---,0.00,VWS V14.01,2013-06-07 23:32:00,
2013-06-07 18:37:00,83.8,60.8,29.86,SW,232,0.0,0.0,46,0.00,,---,0.00,VWS V14.01,2013-06-07 23:37:00,
2013-06-07 18:43:00,83.3,61.0,29.86,SW,235,0.0,1.0,47,0.00,,---,0.00,VWS V14.01,2013-06-07 23:43:00,
2013-06-07 18:48:00,82.7,61.0,29.86,NW,323,0.0,2.0,48,0.00,,---,0.00,VWS V14.01,2013-06-07 23:48:00,
2013-06-07 18:53:00,81.8,59.6,29.86,NNW,328,1.0,4.0,47,0.00,,---,0.00,VWS V14.01,2013-06-07 23:53:00,
2013-06-07 18:58:00,81.6,60.0,29.85,NNW,333,0.0,4.0,48,0.00,,---,0.00,VWS V14.01,2013-06-07 23:58:00,
2013-06-07 19:03:00,81.6,59.4,29.85,WNW,298,0.0,1.0,47,0.00,,---,0.00,VWS V14.01,2013-06-08 00:03:00,
2013-06-07 19:08:00,81.4,60.4,29.85,NW,323,0.0,1.0,49,0.00,,---,0.00,VWS V14.01,2013-06-08 00:08:00,
2013-06-07 19:13:00,81.1,61.3,29.85,NW,321,0.0,1.0,51,0.00,,---,0.00,VWS V14.01,2013-06-08 00:13:00,
2013-06-07 19:18:00,80.3,61.6,29.85,NW,316,1.0,1.0,53,0.00,,---,0.00,VWS V14.01,2013-06-08 00:18:00,
2013-06-07 19:23:00,79.4,60.8,29.85,WNW,300,0.0,2.0,53,0.00,,---,0.00,VWS V14.01,2013-06-08 00:23:00,
2013-06-07 19:28:00,78.6,61.1,29.85,WNW,301,0.0,2.0,55,0.00,,---,0.00,VWS V14.01,2013-06-08 00:28:00,
2013-06-07 19:34:00,78.1,60.6,29.85,WNW,300,0.0,0.0,55,0.00,,---,0.00,VWS V14.01,2013-06-08 00:34:00,
2013-06-07 19:39:00,77.8,60.9,29.85,WNW,301,0.0,0.0,56,0.00,,---,0.00,VWS V14.01,2013-06-08 00:39:00,
2013-06-07 19:44:00,77.6,60.7,29.85,WNW,301,0.0,0.0,56,0.00,,---,0.00,VWS V14.01,2013-06-08 00:44:00,
2013-06-07 19:49:00,77.3,61.4,29.85,WNW,301,0.0,2.0,58,0.00,,---,0.00,VWS V14.01,2013-06-08 00:49:00,
2013-06-07 19:54:00,77.0,61.1,29.85,WNW,301,0.0,2.0,58,0.00,,---,0.00,VWS V14.01,2013-06-08 00:54:00,
2013-06-07 19:59:00,76.8,61.4,29.85,WNW,300,0.0,2.0,59,0.00,,---,0.00,VWS V14.01,2013-06-08 00:59:00,
2013-06-07 20:04:00,76.5,61.6,29.85,WNW,301,0.0,0.0,60,0.00,,---,0.00,VWS V14.01,2013-06-08 01:04:00,
2013-06-07 20:09:00,76.1,61.2,29.85,WNW,301,0.0,0.0,60,0.00,,---,0.00,VWS V14.01,2013-06-08 01:09:00,
2013-06-07 20:14:00,75.8,60.9,29.85,WNW,301,0.0,0.0,60,0.00,,---,0.00,VWS V14.01,2013-06-08 01:14:00,
2013-06-07 20:19:00,75.4,61.0,29.85,WNW,301,0.0,0.0,61,0.00,,---,0.00,VWS V14.01,2013-06-08 01:19:00,
2013-06-07 20:24:00,74.9,60.6,29.85,WNW,301,0.0,0.0,61,0.00,,---,0.00,VWS V14.01,2013-06-08 01:24:00,
2013-06-07 20:29:00,74.4,60.5,29.85,WNW,301,0.0,0.0,62,0.00,,---,0.00,VWS V14.01,2013-06-08 01:29:00,
2013-06-07 20:34:00,73.9,60.5,29.85,WNW,301,0.0,0.0,63,0.00,,---,0.00,VWS V14.01,2013-06-08 01:34:00,
2013-06-07 20:40:00,73.5,60.6,29.85,WNW,301,0.0,1.0,64,0.00,,---,0.00,VWS V14.01,2013-06-08 01:40:00,
2013-06-07 20:45:00,73.2,60.7,29.85,WNW,301,0.0,1.0,65,0.00,,---,0.00,VWS V14.01,2013-06-08 01:45:00,
2013-06-07 20:50:00,73.0,61.0,29.85,WNW,301,0.0,1.0,66,0.00,,---,0.00,VWS V14.01,2013-06-08 01:50:00,
2013-06-07 20:55:00,72.8,63.7,29.85,WNW,300,0.0,1.0,73,0.00,,---,0.00,VWS V14.01,2013-06-08 01:55:00,
2013-06-07 21:00:00,72.3,63.9,29.85,WNW,301,0.0,1.0,75,0.00,,---,0.00,VWS V14.01,2013-06-08 02:00:00,
2013-06-07 21:05:00,71.6,62.9,29.86,WNW,301,0.0,0.0,74,0.00,,---,0.00,VWS V14.01,2013-06-08 02:05:00,
2013-06-07 21:10:00,71.2,62.5,29.86,WNW,301,0.0,0.0,74,0.00,,---,0.00,VWS V14.01,2013-06-08 02:10:00,
2013-06-07 21:15:00,71.1,63.2,29.86,WNW,301,0.0,0.0,76,0.00,,---,0.00,VWS V14.01,2013-06-08 02:15:00,
2013-06-07 21:21:00,70.8,62.1,29.86,WNW,301,0.0,0.0,74,0.00,,---,0.00,VWS V14.01,2013-06-08 02:21:00,
2013-06-07 21:26:00,70.7,62.4,29.86,WNW,301,0.0,0.0,75,0.00,,---,0.00,VWS V14.01,2013-06-08 02:26:00,
2013-06-07 21:31:00,70.6,62.3,29.86,WNW,301,0.0,0.0,75,0.00,,---,0.00,VWS V14.01,2013-06-08 02:31:00,
2013-06-07 21:36:00,70.5,62.2,29.86,WNW,301,0.0,0.0,75,0.00,,---,0.00,VWS V14.01,2013-06-08 02:36:00,
2013-06-07 21:42:00,70.3,63.1,29.86,WNW,301,0.0,0.0,78,0.00,,---,0.00,VWS V14.01,2013-06-08 02:42:00,
2013-06-07 21:47:00,70.1,64.0,29.87,WNW,301,0.0,0.0,81,0.00,,---,0.00,VWS V14.01,2013-06-08 02:47:00,
2013-06-07 21:52:00,69.8,64.4,29.87,WNW,301,0.0,0.0,83,0.00,,---,0.00,VWS V14.01,2013-06-08 02:52:00,
2013-06-07 21:57:00,69.5,64.5,29.87,WNW,300,0.0,0.0,84,0.00,,---,0.00,VWS V14.01,2013-06-08 02:57:00,
2013-06-07 22:02:00,69.4,64.7,29.87,WNW,300,0.0,0.0,85,0.00,,---,0.00,VWS V14.01,2013-06-08 03:02:00,
2013-06-07 22:07:00,69.2,64.5,29.87,WNW,300,0.0,0.0,85,0.00,,---,0.00,VWS V14.01,2013-06-08 03:07:00,
2013-06-07 22:12:00,69.0,64.6,29.88,WNW,300,0.0,0.0,86,0.00,,---,0.00,VWS V14.01,2013-06-08 03:12:00,
2013-06-07 22:17:00,68.9,64.6,29.88,WNW,298,0.0,0.0,86,0.00,,---,0.00,VWS V14.01,2013-06-08 03:17:00,
2013-06-07 22:23:00,68.9,64.6,29.88,WNW,300,0.0,0.0,86,0.00,,---,0.00,VWS V14.01,2013-06-08 03:23:00,
2013-06-07 22:28:00,68.8,64.4,29.89,WNW,300,0.0,0.0,86,0.00,,---,0.00,VWS V14.01,2013-06-08 03:28:00,
2013-06-07 22:33:00,68.6,64.2,29.89,WNW,299,0.0,0.0,86,0.00,,---,0.00,VWS V14.01,2013-06-08 03:33:00,
2013-06-07 22:38:00,68.4,64.1,29.89,WNW,300,0.0,0.0,86,0.00,,---,0.00,VWS V14.01,2013-06-08 03:38:00,
2013-06-07 22:43:00,68.1,63.8,29.89,WNW,300,0.0,0.0,86,0.00,,---,0.00,VWS V14.01,2013-06-08 03:43:00,
2013-06-07 22:48:00,67.9,63.2,29.90,WNW,300,0.0,0.0,85,0.00,,---,0.00,VWS V14.01,2013-06-08 03:48:00,
2013-06-07 22:53:00,67.8,63.5,29.90,WNW,300,0.0,0.0,86,0.00,,---,0.00,VWS V14.01,2013-06-08 03:53:00,
2013-06-07 22:58:00,67.8,63.8,29.90,WNW,300,0.0,0.0,87,0.00,,---,0.00,VWS V14.01,2013-06-08 03:58:00,
2013-06-07 23:01:00,67.9,63.9,29.90,WNW,300,0.0,0.0,87,0.00,,---,0.00,VWS V14.01,2013-06-08 04:01:00,
2013-06-07 23:06:00,67.8,64.1,29.91,WNW,300,0.0,0.0,88,0.00,,---,0.00,VWS V14.01,2013-06-08 04:06:00,
2013-06-07 23:11:00,67.5,63.8,29.90,WNW,300,0.0,0.0,88,0.00,,---,0.00,VWS V14.01,2013-06-08 04:11:00,
2013-06-07 23:16:00,67.3,63.6,29.90,WNW,300,0.0,0.0,88,0.00,,---,0.00,VWS V14.01,2013-06-08 04:16:00,
2013-06-07 23:21:00,67.3,63.6,29.90,WNW,300,0.0,0.0,88,0.00,,---,0.00,VWS V14.01,2013-06-08 04:21:00,
2013-06-07 23:26:00,67.2,63.5,29.90,WNW,300,0.0,0.0,88,0.00,,---,0.00,VWS V14.01,2013-06-08 04:26:00,
2013-06-07 23:31:00,67.0,63.3,29.90,WNW,300,0.0,0.0,88,0.00,,---,0.00,VWS V14.01,2013-06-08 04:31:00,
2013-06-07 23:36:00,66.9,62.9,29.90,WNW,300,0.0,0.0,87,0.00,,---,0.00,VWS V14.01,2013-06-08 04:36:00,
2013-06-07 23:41:00,67.1,63.4,29.90,WNW,300,0.0,0.0,88,0.00,,---,0.00,VWS V14.01,2013-06-08 04:41:00,
2013-06-07 23:46:00,67.4,64.4,29.90,WNW,300,0.0,0.0,90,0.00,,---,0.00,VWS V14.01,2013-06-08 04:46:00,
2013-06-07 23:51:00,67.6,64.2,29.90,WNW,300,0.0,0.0,89,0.00,,---,0.00,VWS V14.01,2013-06-08 04:51:00,
2013-06-07 23:56:00,67.5,64.5,29.90,WNW,300,0.0,0.0,90,0.00,,---,0.00,VWS V14.01,2013-06-08 04:56:00,